Location: Aufkirchen
(47.9603°N, 11.3653°E)
Time: 07:29:37
(UTC+01:00)

Transit 2A - Pass Details

Date: 30 November 2020
Orbit: 599 x 960 km, 66.7° (Epoch: 25 January)

Event Time Altitude Azimuth Distance (km) Brightness Sun altitude
Rises 01:07:35 0° 327° (NNW) 3,354 - -60.7°
Reaches altitude 10° 01:10:15 10° 334° (NNW) 2,357 - -60.5°
Maximum altitude 01:15:22 44° 46° (NE) 1,013 - -60.0°
Drops below altitude 10° 01:19:59 10° 118° (ESE) 2,121 - -59.6°
Sets 01:22:17 0° 125° (SE) 2,984 - -59.3°
